Regional Weather Roundup
Issued by NWS

Home | Current Version | Previous Version | Graphics & Text | Print | Product List | Glossary On
Versions: 1 2 3 4 5 6 7 8 9 10 11 12 13 14 15 16 17 18 19 20 21 22 23 24 25 26 27 28 29 30 31 32 33 34 35 36 37 38 39 40 41 42 43 44 45 46 47 48 49 50
000
ASUS45 KCYS 062110
RWRWY

WYOMING REGIONAL WEATHER ROUNDUP
NATIONAL WEATHER SERVICE CHEYENNE WY
200 PM MST SAT FEB 06 2016

NOTE:  "FAIR" INDICATES FEW OR NO CLOUDS BELOW 12,000 FEET
WITH NO SIGNIFICANT WEATHER AND/OR OBSTRUCTIONS TO VISIBILITY.

WYZ001-062200-
YELLOWSTONE NATIONAL PARK

CITY           SKY/WX    TMP DP  RH WIND       PRES   REMARKS
LK YELLOWSTONE   N/A     24  16  71 W10G22    30.22F WCI  14
W YELLOWSTONE  NOT AVBL

$$
WYZ002>013-054>058-071-098>099-062200-
NORTHERN WYOMING

CITY           SKY/WX    TMP DP  RH WIND       PRES   REMARKS
JACKSON        SUNNY     34  21  60 SW18G32   30.25F WCI  23
CODY           FAIR      48  10  21 W20G38    30.04R
GREYBULL       FAIR      40  21  46 S10       30.04S WCI  33
WORLAND        FAIR      41  25  53 NW6       30.02F
SHERIDAN       PTSUNNY   43  21  42 N23       29.90R
BUFFALO        FAIR      47  19  33 SE14      29.91S
GILLETTE       FAIR      42  26  53 SW17      29.91R
HULETT         FAIR      43  27  52 SW12      29.91S
NEWCASTLE      FAIR      41  21  45 SE7       29.95F

$$
WYZ014>020-022>026-101>103-062200-
CENTRAL WYOMING

CITY           SKY/WX    TMP DP  RH WIND       PRES   REMARKS
BIG PINEY      FAIR      32  16  51 E5        30.29F WCI  27
PINEDALE       FAIR      32  19  59 NW7       30.29S WCI  26
DUBOIS         FAIR      36  18  48 NW31G39   30.12S WCI  22
LANDER         FAIR      39  20  46 NE7       30.07F WCI  34
RIVERTON       FAIR      39  22  50 S6        30.08F WCI  35
CASPER         FAIR      31  23  72 SW36G54   30.05F HAZE    WCI  15
DOUGLAS        FAIR      43  23  45 NW16        N/A

$$
WYZ021-027>030-104>119-062200-
SOUTHERN WYOMING

CITY           SKY/WX    TMP DP  RH WIND       PRES   REMARKS
EVANSTON       FAIR      31  18  58 SW26      30.35F WCI  17
KEMMERER       FAIR      30  19  64 SW7       30.34F WCI  23
FORT BRIDGER   CLEAR     34  21  60 W28       30.36F WCI  20
ROCK SPRINGS   FAIR      30  17  58 SW16G23   30.28F WCI  19
DIXON          FAIR      27  15  61 CALM      30.39F
RAWLINS        FAIR      27  17  66 SW24G37   30.25S WCI  12
SARATOGA       FAIR      34  19  55 SW15G23   30.28F WCI  24
LARAMIE        FAIR      37  20  50 SW23G36   30.15S WCI  26
CHEYENNE       FAIR      39  22  50 W32G40    30.09S WCI  27
TORRINGTON     FAIR      41  24  51 W22G29    30.02F
PINE BLUFFS    FAIR      39  27  60 W25       30.06F WCI  28

$$



USA.gov is the U.S. government's official web portal to all federal, state and local government web resources and services.